TimeMST,TemperatureF,Dew PointF,Humidity,Sea Level PressureIn,VisibilityMPH,Wind Direction,Wind SpeedMPH,Gust SpeedMPH,PrecipitationIn,Events,Conditions,WindDirDegrees,DateUTC
12:53 AM,1.0,-2.9,83,30.15,10.0,WSW,5.8,-,N/A,,Clear,240,2013-02-12 07:53:00
1:53 AM,1.0,-2.0,87,30.15,10.0,West,5.8,-,N/A,,Clear,270,2013-02-12 08:53:00
2:53 AM,-4.0,-8.0,83,30.15,10.0,West,10.4,-,N/A,,Clear,260,2013-02-12 09:53:00
3:53 AM,-4.0,-7.1,87,30.16,10.0,West,8.1,-,N/A,,Clear,280,2013-02-12 10:53:00
4:53 AM,1.9,-2.0,83,30.14,10.0,West,6.9,-,N/A,,Clear,280,2013-02-12 11:53:00
5:53 AM,10.0,3.0,73,30.14,10.0,WNW,12.7,-,N/A,,Clear,290,2013-02-12 12:53:00
6:53 AM,10.9,3.0,70,30.14,10.0,WNW,13.8,-,N/A,,Clear,290,2013-02-12 13:53:00
7:53 AM,12.9,3.9,67,30.16,10.0,West,16.1,-,N/A,,Clear,280,2013-02-12 14:53:00
8:53 AM,21.0,9.0,60,30.16,10.0,West,15.0,-,N/A,,Partly Cloudy,280,2013-02-12 15:53:00
9:53 AM,28.0,14.0,56,30.13,10.0,WNW,12.7,-,N/A,,Clear,290,2013-02-12 16:53:00
10:53 AM,33.1,15.1,48,30.12,10.0,NW,11.5,-,N/A,,Clear,320,2013-02-12 17:53:00
11:53 AM,36.0,17.1,46,30.10,10.0,NNW,12.7,-,N/A,,Clear,330,2013-02-12 18:53:00
12:53 PM,37.9,19.0,47,30.08,10.0,NNW,10.4,-,N/A,,Clear,330,2013-02-12 19:53:00
1:53 PM,39.0,19.9,46,30.08,10.0,NNW,8.1,-,N/A,,Clear,330,2013-02-12 20:53:00
2:53 PM,39.9,19.0,43,30.10,10.0,NW,11.5,-,N/A,,Overcast,320,2013-02-12 21:53:00
3:53 PM,39.9,21.0,47,30.10,10.0,NW,11.5,-,N/A,,Mostly Cloudy,310,2013-02-12 22:53:00
4:53 PM,35.1,21.0,57,30.09,10.0,WNW,11.5,-,N/A,,Clear,300,2013-02-12 23:53:00
5:53 PM,28.0,19.9,72,30.10,10.0,West,10.4,-,N/A,,Clear,270,2013-02-13 00:53:00
6:53 PM,28.0,17.1,63,30.10,10.0,WNW,13.8,-,N/A,,Clear,290,2013-02-13 01:53:00
7:53 PM,26.1,16.0,66,30.09,10.0,WNW,13.8,-,N/A,,Clear,290,2013-02-13 02:53:00
8:53 PM,23.0,14.0,68,30.09,10.0,WNW,12.7,-,N/A,,Partly Cloudy,290,2013-02-13 03:53:00
9:53 PM,25.0,14.0,63,30.05,10.0,WNW,17.3,-,N/A,,Clear,300,2013-02-13 04:53:00
10:53 PM,19.9,12.9,74,30.05,10.0,West,11.5,-,N/A,,Clear,280,2013-02-13 05:53:00
11:53 PM,23.0,15.1,72,30.01,10.0,West,11.5,-,N/A,,Overcast,270,2013-02-13 06:53:00